Vero Beach, FL

5:04 AM EDT on September 28, 2016 (GMT -0400)
Vero Beach Municipal

Weather History for KVRB - July, 2013

Change the Weather History Date:

Wednesday, July 24, 2013

  Actual Average Record
Temperature  
Mean Temperature 82 °F 82 °F  
Max Temperature 91 °F 90 °F 98 °F (1983)
Min Temperature 73 °F 74 °F 69 °F (1986)
Degree Days  
Heating Degree Days 0 0  
Month to date heating degree days 0 0  
Since 1 June heating degree days 0 0  
Since 1 July heating degree days 0 0  
Cooling Degree Days 17 17  
Month to date cooling degree days 369 399  
Year to date cooling degree days 1781 1661  
Since 1 June cooling degree days 874 855  
Growing Degree Days 32 (Base 50)    
Moisture  
Dew Point 74 °F    
Average Humidity 78    
Maximum Humidity 100    
Minimum Humidity 56    
Precipitation  
Precipitation 0.19 in 0.17 in 1.72 in (1971)
Month to date precipitation 3.66 4.38  
Year to date precipitation 24.37 26.42  
Sea Level Pressure  
Sea Level Pressure 29.96 in    
Wind  
Wind Speed 8 mph (SW)    
Max Wind Speed 29 mph    
Max Gust Speed 41 mph    
Visibility 9 miles    
Events Rain , Thunderstorm    
T = Trace of Precipitation, MM = Missing Value Source: NWS Daily Summary

Daily Weather History Graph

Daily Weather History Graph

Search for Another Location

Airport or City:

Trip Planner

Search our weather history database for the weather conditions in past years. The results will help you decide how hot, cold, wet, or windy it might be!

Date:

Astronomy

Jul. 24, 2013 Rise Set
Actual Time 6:40 AM EDT 8:15 PM EDT
Civil Twilight 6:15 AM EDT 8:41 PM EDT
Nautical Twilight 5:44 AM EDT 9:11 PM EDT
Astronomical Twilight 5:12 AM EDT 9:43 PM EDT
Moon 9:40 PM EDT (7/24) 8:42 AM EDT (7/24)
Length of Visible Light 14h 26m
Length of Day
13h 34m
Waning Gibbous, 95% of the Moon is Illuminated
Jul 24
Waning Gibbous
Jul 29
Last Quarter
Aug 6
New
Aug 14
First Quarter
Aug 20
Full

Hourly Weather History & Observations

Time (EDT) Temp. Heat Index Dew Point Humidity Pressure Visibility Wind Dir Wind Speed Gust Speed Precip Events Conditions
12:53 AM 77.0 °F - 73.0 °F 88% 30.01 in 10.0 mi SSW 4.6 mph - N/A   Clear
1:53 AM 75.9 °F - 73.0 °F 91% 29.99 in 10.0 mi SW 4.6 mph - N/A   Clear
2:53 AM 75.0 °F - 73.0 °F 94% 29.96 in 10.0 mi Calm Calm - N/A   Clear
3:53 AM 75.0 °F - 73.0 °F 94% 29.95 in 10.0 mi SSW 4.6 mph - N/A   Clear
4:53 AM 75.0 °F - 73.0 °F 94% 29.96 in 10.0 mi Calm Calm - N/A   Clear
5:53 AM 73.9 °F - 73.0 °F 97% 29.96 in 10.0 mi SW 3.5 mph - N/A   Clear
6:53 AM 73.9 °F - 73.0 °F 97% 29.96 in 10.0 mi SSW 5.8 mph - N/A   Clear
7:53 AM 77.0 °F - 73.9 °F 90% 29.96 in 10.0 mi SW 6.9 mph - N/A   Clear
8:53 AM 80.1 °F 85.1 °F 75.0 °F 85% 29.98 in 10.0 mi WSW 10.4 mph - N/A   Clear
9:53 AM 82.0 °F 88.6 °F 75.0 °F 79% 29.99 in 10.0 mi West 16.1 mph - N/A   Partly Cloudy
10:53 AM 86.0 °F 95.1 °F 75.0 °F 70% 29.98 in 10.0 mi WSW 12.7 mph - N/A   Scattered Clouds
11:53 AM 87.1 °F 94.5 °F 73.0 °F 63% 29.97 in 10.0 mi West 13.8 mph 21.9 mph N/A   Partly Cloudy
12:53 PM 89.1 °F 97.0 °F 73.0 °F 59% 29.96 in 10.0 mi WSW 13.8 mph 20.7 mph N/A   Partly Cloudy
1:53 PM 90.0 °F 97.9 °F 73.0 °F 57% 29.95 in 10.0 mi WSW 17.3 mph 21.9 mph N/A   Scattered Clouds
2:53 PM 91.0 °F 99.3 °F 73.0 °F 55% 29.92 in 10.0 mi WSW 11.5 mph - N/A   Mostly Cloudy
3:30 PM 75.2 °F - 73.4 °F 94% 29.96 in 2.0 mi NW 18.4 mph 39.1 mph 0.04 in Rain , Thunderstorm Thunderstorms and Rain
3:39 PM 73.4 °F - 71.6 °F 94% 29.96 in 5.0 mi NW 19.6 mph 26.5 mph 0.05 in Rain , Thunderstorm Thunderstorms and Rain
3:53 PM 73.9 °F - 73.0 °F 97% 29.97 in 2.0 mi NW 17.3 mph 28.8 mph 0.11 in Rain , Thunderstorm Heavy Thunderstorms and Rain
4:04 PM 73.4 °F - 73.4 °F 100% 29.97 in 4.0 mi NW 11.5 mph 24.2 mph 0.02 in Rain , Thunderstorm Light Rain
4:53 PM 75.0 °F - 73.0 °F 94% 29.94 in 8.0 mi South 5.8 mph - 0.07 in   Partly Cloudy
5:53 PM 77.0 °F - 73.9 °F 90% 29.93 in 10.0 mi South 3.5 mph - 0.01 in   Partly Cloudy
6:53 PM 78.1 °F - 75.0 °F 90% 29.92 in 10.0 mi SSE 3.5 mph - N/A   Partly Cloudy
7:53 PM 77.0 °F - 75.0 °F 94% 29.93 in 10.0 mi South 3.5 mph - N/A   Clear
8:53 PM 77.0 °F - 75.9 °F 96% 29.94 in 10.0 mi South 4.6 mph - N/A   Clear
9:53 PM 77.0 °F - 75.0 °F 94% 29.94 in 10.0 mi South 5.8 mph - N/A   Clear
10:53 PM 77.0 °F - 75.0 °F 94% 29.95 in 10.0 mi SSW 5.8 mph - N/A   Clear
11:53 PM 78.1 °F - 75.0 °F 90% 29.94 in 10.0 mi WSW 9.2 mph - N/A   Clear